Starlink 3826

operational
NORAD ID: 52347 Int'l Des: 2022-045 Owner: SPXS Country: US Constellation: starlink
LEOCIRCULAR

Starlink 3826について

説明を読み込み中...

リアルタイム位置

3D地球を読み込み中...

次回通過

高度履歴

Altitude vs Time

uPlot chart will show altitude changes over time

軌道要素

1 52347U 22045S 26073.68733605 -.00003214 00000-0 -18383-3 0 9998
2 52347 53.2177 176.6901 0001180 105.6959 254.4163 15.08856606216530
Epoch: Mar 14, 2026 • Age: 17 hours

現在のステータス

高度 557.9 km
速度 7.58 km/s
衛星直下点 -50.56°S, 102.45°E
打ち上げ日 Apr 29, 2022
運用期間 3.8 years
タイプ internet

技術仕様

分類 Payload
質量 297.00 kg
乾燥質量 275.00 kg
総質量 297.00 kg
長さ 0.20 m
直径 2.80 m
スパン 9.00 m
形状 Box + pan
製造者 SPXS
バスタイプ Starlink
フェーズステータス In Orbit
所有者/国 SPXS/US

大規模コンステレーション

Loading constellations...